カタログに戻る

SL-8 R/B

運用中LEO
NORAD 12115·ROCKET BODY·🇷🇺 Russia

打ち上げ Dec 23, 1980 から Plesetsk Cosmodrome

Loading…

次のパス (今後24時間)

TLE

最新Source: Space-Track

元期: Sep 14, 2026, 09:48 UTC

1 12115U 80102J   26257.40863112 -.00000100  00000-0 -53243-3 0  9991
2 12115  73.9881  56.9070 0019713 174.4711 210.9940 12.52313719 90447

AllMySatでSL-8 R/Bをリアルタイム追跡

Download on the App Store